Temperature
16 17 17 17 17 18 19 21 24 24 25 25 25 25 24 22 22 20 19 19 19 19 18 17 17 16 16 16 16 16 16 16 16 16 16 16 16 16 16 16 16 16 16 16 16 16 16 16 16
16 16 17 18 17 18 19 22 23 24 25 24 24 24 24 22 20 20 19 18 18 19 18 17 17 16 16 16 16 16 16 16 16 16 16 16 16 16 16 16 16 16 16 16 16 16 16 16 16
16 16 17 18 17 18 20 23 23 24 24 24 24 24 23 21 20 20 19 18 18 18 18 17 17 16 16 16 16 17 17 16 16 16 16 16 16 16 16 16 16 16 16 16 16 16 16 16 16
15 16 17 17 18 20 22 23 23 23 24 24 24 23 20 19 20 19 19 18 18 17 17 17 16 16 16 16 17 17 17 16 16 16 16 16 16 17 17 17 17 17 17 16 16 16 16 16 16
14 16 16 17 18 21 22 23 23 23 23 23 24 22 18 19 19 19 19 18 17 17 17 17 16 16 16 16 17 17 17 17 16 16 16 16 17 17 17 17 17 17 17 17 17 16 16 16 16
15 16 15 16 18 21 22 22 23 23 23 24 23 21 17 18 18 18 18 18 17 17 17 17 16 16 16 16 17 17 17 17 16 16 16 16 17 17 17 17 17 17 17 17 17 17 16 16 16
14 15 15 17 18 20 21 22 22 22 23 23 22 20 17 17 18 18 18 18 17 17 17 17 16 16 16 16 16 16 17 17 16 16 16 16 17 17 17 17 17 17 17 17 17 17 17 16 16
14 14 15 17 18 20 21 22 22 22 22 21 21 20 17 17 17 17 18 17 17 17 16 16 16 16 16 16 16 16 16 16 16 16 16 16 17 17 17 17 17 17 17 17 17 17 17 16 16
14 13 14 17 18 19 20 21 21 21 21 20 19 18 17 17 17 17 17 17 17 16 16 16 16 16 16 16 16 16 16 17 16 16 16 16 16 17 17 17 17 17 17 17 17 17 16 16 16
13 13 15 18 18 19 19 20 20 20 20 20 18 17 17 16 17 17 17 17 17 16 16 16 16 16 16 16 16 16 16 16 16 16 16 16 16 16 16 17 17 17 17 17 17 17 16 16 16
13 14 16 17 18 17 18 19 19 20 19 19 18 17 16 16 16 16 16 17 17 16 16 16 16 16 15 15 16 16 16 16 15 15 15 15 15 15 15 16 16 17 17 17 17 16 16 16 15
13 15 16 16 16 16 17 18 18 19 19 18 18 18 17 16 16 16 16 16 16 16 16 16 16 16 16 15 15 15 15 15 15 15 15 15 15 15 15 16 16 16 16 16 16 16 15 15 14
13 14 15 15 15 15 16 17 18 18 18 18 18 17 17 17 16 16 16 16 16 16 16 16 16 16 16 15 15 15 15 15 15 15 15 15 15 15 15 15 15 15 15 15 15 15 14 14 14
14 14 15 14 15 15 15 16 17 17 18 18 18 17 17 17 17 16 16 16 16 16 16 16 16 16 15 15 15 15 15 15 15 15 15 14 14 14 14 14 14 14 14 14 14 14 14 14 13
13 13 14 14 14 15 15 14 16 17 18 18 18 18 17 17 17 17 16 16 16 16 16 16 16 16 15 15 15 15 15 15 15 15 15 14 14 14 14 14 14 14 14 14 14 14 13 13 14
13 12 12 14 14 14 14 14 16 17 17 18 18 18 18 17 17 17 17 16 16 16 16 16 16 15 15 15 15 15 15 15 15 14 14 14 14 14 14 14 14 14 14 14 14 14 13 13 13
11 11 12 13 14 15 14 14 16 18 18 18 18 18 18 18 17 17 17 16 16 16 16 16 16 15 15 15 15 15 15 14 14 14 14 14 14 14 14 14 14 14 13 13 13 13 13 13 13
11 12 13 13 14 15 14 14 16 18 18 18 18 18 18 18 18 18 17 17 16 16 16 16 16 16 15 15 15 15 15 14 14 14 14 14 14 14 14 14 14 13 13 13 13 13 13 13 13
12 12 13 14 15 15 14 14 16 17 18 17 18 18 18 18 18 18 18 17 17 16 16 16 16 16 15 15 15 15 15 15 14 14 14 14 14 14 14 14 14 13 13 13 13 13 13 13 12
12 12 12 13 14 14 14 14 15 16 17 18 18 18 18 18 18 18 18 17 17 16 16 16 16 16 15 15 15 15 15 15 14 14 14 14 14 14 14 14 14 14 13 13 13 13 12 12 12
12 12 12 12 13 14 13 13 14 16 17 18 18 18 18 18 18 18 18 17 17 16 16 16 16 16 16 15 15 15 15 14 14 14 14 14 14 14 14 14 14 13 13 13 13 12 12 12 12
11 13 12 12 12 12 13 11 14 15 15 16 17 18 18 18 18 18 17 17 17 16 16 16 16 16 15 15 15 15 15 15 15 14 14 14 14 14 14 14 14 13 13 13 12 12 12 11 11
11 12 12 12 12 11 12 12 13 15 15 16 16 18 18 18 17 17 17 17 16 16 16 16 16 15 15 15 15 15 15 14 14 14 14 14 14 14 14 14 13 13 12 12 12 12 11 11 11
12 12 12 11 10 9 11 12 12 14 15 16 17 17 18 17 17 17 17 16 16 16 16 16 15 15 15 15 15 15 14 14 14 14 14 13 13 13 13 13 13 12 12 12 11 11 11 10 10
11 10 9 9 8 9 12 12 13 16 16 16 16 17 17 17 17 16 16 16 15 15 15 15 15 15 15 15 14 14 14 14 14 13 13 13 13 12 12 12 12 12 11 11 11 10 10 10 10
10 10 9 9 9 10 13 12 14 16 17 17 16 16 16 16 16 16 15 15 15 15 15 14 14 14 14 14 14 14 14 13 13 13 13 12 12 12 12 11 11 11 11 10 10 10 9 9 9
10 9 10 9 9 10 11 13 15 16 15 16 16 16 15 15 15 14 14 14 14 14 14 13 13 13 13 13 13 13 13 13 13 12 12 12 12 11 11 11 10 10 10 10 9 9 9 9 8
10 10 9 8 8 9 11 12 13 14 14 14 14 15 15 14 14 13 13 13 13 13 12 12 12 12 12 12 12 13 13 12 12 12 11 11 11 10 10 10 10 9 9 9 9 8 8 8 7
9 9 9 9 9 9 10 11 14 14 14 14 14 14 14 14 13 13 12 12 12 11 11 11 11 11 11 11 12 12 12 11 11 11 11 10 10 10 9 9 9 8 8 8 8 7 7 7 7
10 10 9 8 8 9 9 10 14 13 13 14 14 14 13 13 12 12 11 11 11 10 10 10 10 10 10 11 11 11 11 11 10 10 10 9 9 9 8 8 8 7 7 7 6 6 6 6 6
Wind_Speed
12 13 7 2 3 5 10 10 9 6 3 4 7 5 7 9 6 11 8 15 20 19 22 21 20 19 18 17 16 15 14 14 14 14 15 15 15 16 16 17 18 18 19 19 18 17 17 16 16
11 9 5 3 5 8 10 12 10 4 4 6 4 3 4 8 8 8 9 18 20 20 21 20 21 20 19 17 16 14 14 14 14 14 15 15 15 16 17 17 18 18 18 17 17 16 15 15 14
10 10 4 4 7 11 11 12 7 3 6 2 1 2 4 6 8 6 12 18 18 18 20 22 21 20 19 17 15 14 14 14 14 14 15 15 15 15 16 16 17 17 16 16 15 15 14 14 13
5 4 4 6 13 14 11 6 5 6 5 3 3 5 6 7 4 8 15 16 17 15 21 22 21 20 18 17 15 14 14 14 14 14 14 15 15 15 15 15 15 15 14 14 14 13 13 12 11
4 4 7 9 14 12 6 2 2 4 7 6 5 5 6 4 4 10 11 15 15 16 20 21 21 20 18 16 15 14 14 14 13 14 15 15 15 15 14 14 13 13 13 12 12 12 11 11 10
4 4 7 13 15 12 7 2 1 5 6 7 4 4 5 1 5 7 8 12 14 16 19 20 21 20 18 16 14 13 13 13 13 14 15 14 14 14 14 13 12 11 11 11 11 10 9 9 8
6 6 10 14 14 12 8 5 4 5 4 3 1 4 7 4 5 6 7 10 13 15 16 17 18 18 17 16 14 13 13 13 13 14 15 15 14 13 13 12 11 10 10 9 9 8 8 7 5
5 3 11 13 12 11 7 6 3 2 2 4 5 4 7 7 5 5 7 9 11 13 13 14 17 17 16 15 15 14 14 13 13 14 15 15 14 13 12 11 10 9 8 8 7 6 5 4 3
4 5 10 12 10 8 5 5 3 1 4 5 6 8 10 12 8 6 7 8 9 11 11 11 13 15 16 16 14 15 14 13 14 14 15 14 13 13 11 12 10 8 7 7 6 5 4 3 3
5 7 11 9 5 3 5 4 5 4 6 5 8 12 12 10 9 8 8 10 9 10 10 10 9 11 14 14 14 14 12 13 13 14 14 12 11 12 13 13 10 9 8 7 6 6 6 7 8
6 9 9 7 2 0 3 4 3 5 6 5 7 12 12 10 9 9 8 9 9 9 9 9 9 10 11 10 12 11 12 13 13 15 16 12 9 11 12 11 10 9 9 9 9 9 10 10 7
8 11 9 6 1 0 3 3 4 3 5 6 6 10 11 10 9 9 8 8 9 9 8 8 8 8 9 9 8 9 9 9 8 11 12 9 7 6 8 8 11 12 11 11 10 10 10 8 7
10 9 9 4 2 3 4 5 3 3 6 6 6 7 8 9 9 7 6 7 7 8 9 8 8 8 7 6 5 5 7 8 9 9 8 7 6 4 5 5 7 8 8 8 7 7 6 5 5
6 7 8 4 5 5 4 6 5 3 5 6 6 6 7 7 8 7 7 7 7 8 9 8 9 8 7 5 4 4 6 8 9 9 7 7 6 5 4 3 4 5 5 6 6 6 4 3 3
4 5 5 5 4 3 3 8 10 8 5 6 7 7 7 6 7 7 7 7 7 7 8 9 9 8 8 7 6 6 6 8 7 9 10 9 7 6 4 2 3 4 5 5 4 4 2 1 2
4 4 5 6 7 6 6 9 12 10 8 7 7 7 8 8 7 6 6 6 6 7 7 8 8 9 8 7 6 5 5 6 7 9 9 10 9 8 6 3 2 5 5 3 2 1 1 2 3
4 6 8 7 10 8 8 7 9 10 10 9 7 7 7 8 8 8 7 7 6 6 6 7 7 7 7 7 5 5 5 5 6 7 6 7 7 8 6 4 4 5 3 2 2 2 2 3 4
7 8 9 9 8 9 9 9 8 8 9 9 9 8 8 8 8 8 8 7 6 6 5 7 7 7 7 6 5 4 3 3 4 5 5 4 4 5 4 3 4 3 2 2 2 3 3 3 3
5 6 7 6 6 8 9 10 10 8 9 10 10 10 9 8 7 8 8 8 7 6 6 7 7 7 6 5 5 5 4 4 3 3 5 4 3 4 4 2 2 2 2 3 3 3 3 3 2
5 6 5 2 4 5 7 10 10 10 10 10 11 11 10 8 7 7 8 8 8 8 8 7 7 6 6 5 5 4 4 3 3 3 4 4 3 1 1 1 1 1 1 2 2 2 2 2 2
6 4 3 2 2 5 5 8 11 11 11 11 10 10 9 10 10 9 9 8 7 7 8 7 7 6 6 6 4 4 3 3 2 3 3 3 4 3 2 1 1 1 1 2 2 2 2 3 3
3 1 1 2 2 4 6 5 9 12 12 12 11 10 10 9 9 8 9 9 8 6 6 6 6 6 6 6 6 6 5 4 4 4 4 4 4 3 2 0 0 1 1 1 2 2 2 3 4
0 2 1 3 4 4 6 6 7 10 12 13 12 12 11 10 9 8 8 9 8 7 6 5 5 6 5 5 6 6 5 4 4 4 5 4 4 4 3 1 1 0 0 1 1 2 2 2 3
0 1 2 2 2 5 9 8 6 7 11 11 12 11 10 9 8 8 7 8 7 7 6 5 6 5 5 5 5 5 5 5 5 4 4 3 3 3 4 3 2 2 2 1 1 2 2 2 3
3 2 2 3 4 7 8 7 7 5 4 4 4 5 5 5 6 7 8 9 9 9 7 6 6 6 5 5 5 5 5 5 5 4 4 4 3 2 3 3 3 2 2 2 1 1 2 2 2
6 5 3 3 4 4 5 7 6 5 3 4 2 2 2 2 3 5 7 8 9 10 9 7 7 7 6 6 6 6 6 4 4 4 4 4 3 4 4 4 3 3 3 2 1 1 1 1 1
4 5 3 3 5 3 5 6 6 4 4 4 4 3 3 4 4 4 5 7 8 9 9 8 8 7 7 7 7 7 6 6 6 5 5 4 4 4 4 3 2 2 2 2 2 1 1 1 1
4 3 2 3 3 4 6 8 5 6 6 5 3 3 2 3 4 4 5 6 7 8 8 8 8 8 7 7 6 6 7 6 6 5 5 5 5 4 3 2 2 2 2 2 2 2 2 2 2
6 4 4 4 4 3 3 2 3 3 4 4 3 3 3 3 3 4 4 5 7 7 8 8 8 8 8 8 7 7 6 6 6 5 5 5 4 3 3 3 2 2 2 2 2 2 2 2 2
6 8 7 4 5 4 3 4 3 5 5 4 3 4 3 4 3 4 6 6 6 7 7 7 8 8 8 8 8 8 7 6 6 5 5 5 4 4 3 3 3 3 3 3 2 2 2 3 3
Wind_Direction
283 267 248 242 233 229 236 243 241 222 207 45 25 3 43 44 50 114 146 127 126 131 138 141 138 135 129 123 119 117 114 111 107 102 96 90 86 86 88 89 90 90 89 87 86 85 84 83 82
280 264 240 227 224 220 224 232 239 202 88 60 32 332 62 77 74 111 136 125 129 131 140 142 139 135 130 126 123 122 120 117 113 106 101 95 92 89 90 92 91 91 90 88 86 85 84 84 82
270 258 232 213 227 224 217 210 206 142 88 105 178 336 37 65 93 121 122 129 129 133 140 138 139 136 132 129 127 127 125 122 117 111 106 100 97 94 93 93 94 93 91 89 88 86 85 84 81
249 225 235 231 226 232 240 221 157 146 132 195 182 102 76 29 35 116 125 133 130 131 130 138 139 136 133 132 131 131 128 123 121 117 111 106 102 99 98 98 98 97 95 93 90 88 86 84 79
243 219 211 225 231 227 234 285 87 160 161 188 214 120 80 10 52 114 136 134 131 128 131 140 138 137 136 135 134 133 131 127 124 122 117 111 109 107 106 105 104 103 100 97 93 91 87 83 77
210 211 205 213 222 218 212 196 202 225 180 173 190 130 93 32 106 135 145 133 128 127 133 140 140 139 139 138 137 134 133 132 128 127 122 117 116 116 115 113 111 108 104 100 96 93 90 84 76
218 213 217 212 212 212 202 180 194 235 181 150 132 117 116 114 111 139 134 126 126 128 134 141 143 141 140 140 139 136 132 132 130 128 126 121 123 124 123 121 118 114 109 105 101 96 92 88 79
234 232 227 219 210 212 191 184 181 243 106 46 29 99 130 138 135 132 129 123 125 133 140 146 151 148 146 142 140 137 134 133 132 130 130 131 133 136 136 132 126 123 119 116 112 106 104 102 100
234 226 223 216 209 208 188 185 151 11 85 66 61 74 112 130 135 133 132 128 134 141 146 152 155 156 154 149 146 140 139 139 139 140 146 150 157 156 151 140 138 137 137 137 137 141 155 174 201
203 214 221 222 217 197 192 189 159 169 140 121 101 102 119 134 144 152 155 151 153 154 154 155 156 156 153 148 153 156 157 160 165 162 170 187 182 156 143 143 149 154 161 165 175 190 211 224 223
202 219 225 238 222 0 207 195 185 180 150 129 128 134 140 149 156 165 172 163 163 161 157 154 151 152 148 149 165 166 165 174 190 173 185 194 147 132 142 156 164 177 185 192 199 212 227 232 215
218 223 225 244 1 274 246 222 204 194 113 103 111 134 147 158 167 174 176 167 164 164 161 155 150 149 151 157 165 161 161 176 178 170 184 172 152 159 168 172 179 188 197 199 190 217 225 221 221
225 225 220 226 225 222 270 271 241 152 116 111 121 139 154 162 168 174 176 169 166 168 166 162 153 151 153 154 164 170 163 168 163 164 181 166 153 173 170 181 180 198 196 180 202 232 237 224 238
220 233 212 198 216 208 228 260 260 201 151 144 147 158 162 164 168 168 175 179 177 176 170 164 165 160 157 156 168 183 172 166 157 158 179 175 174 178 165 195 183 209 199 200 213 234 241 242 250
222 234 222 195 212 211 190 241 234 224 208 189 180 171 165 167 172 176 180 178 178 177 177 172 173 170 168 170 181 186 175 165 160 163 180 182 188 174 171 208 191 210 213 219 229 263 278 298 293
204 204 214 208 200 214 200 228 224 214 215 215 207 190 174 176 180 182 180 176 177 175 180 177 174 174 174 174 179 173 173 169 163 166 180 186 188 179 183 202 209 223 215 204 204 255 283 273 267
195 204 209 212 201 204 210 236 237 207 214 223 224 214 196 180 183 184 176 173 173 176 174 170 167 172 173 169 168 172 176 168 162 165 172 182 187 188 187 199 218 223 204 197 214 224 230 253 265
186 199 208 206 194 201 220 239 252 227 210 225 233 229 214 196 188 180 169 166 166 176 178 173 172 174 172 168 170 170 171 161 151 148 158 176 189 191 189 201 226 224 198 214 219 232 239 242 256
222 220 223 211 192 199 224 235 243 242 214 217 226 231 222 209 193 173 160 162 166 177 183 180 177 176 169 165 170 174 178 173 158 148 158 169 185 192 187 198 224 220 211 226 233 234 244 245 248
223 219 225 200 184 204 238 243 239 238 229 221 218 223 220 211 193 176 162 165 174 179 182 180 178 174 169 167 167 162 156 156 158 151 147 151 148 156 182 182 208 204 227 247 253 250 240 238 215
215 211 207 189 199 227 249 250 237 234 236 231 224 226 224 209 200 183 169 171 174 179 179 173 168 166 162 154 141 129 120 123 149 162 154 132 126 109 78 47 20 341 220 242 254 255 234 245 249
216 216 256 226 215 230 212 247 233 222 222 224 220 218 223 221 209 188 170 170 174 170 155 157 157 157 157 156 157 162 166 171 178 165 155 141 138 132 130 113 327 318 274 250 256 262 247 240 251
355 30 260 258 259 274 233 248 258 220 215 216 214 212 213 211 205 192 173 164 158 146 141 146 148 153 155 160 164 167 169 160 141 135 144 150 143 136 129 108 63 0 5 334 318 300 279 253 248
148 182 253 267 279 261 234 228 264 230 212 208 204 204 207 200 192 188 165 146 139 133 137 147 153 154 152 154 154 156 153 141 136 137 145 139 131 123 104 81 54 39 44 22 334 300 290 278 268
209 168 179 203 216 240 219 222 245 245 205 188 191 198 201 188 179 173 160 157 154 152 155 160 160 157 153 147 141 137 134 136 141 143 145 136 126 112 90 69 51 43 37 16 358 324 312 318 305
213 214 216 220 220 240 207 224 245 238 155 137 144 184 181 182 174 170 166 161 158 157 160 166 163 156 151 142 130 118 114 113 110 100 99 98 98 96 85 71 58 46 34 15 10 349 345 16 6
218 221 250 298 289 264 231 239 238 201 156 157 175 191 199 181 170 171 158 151 155 158 164 167 158 151 147 139 128 119 111 105 103 94 88 89 90 90 77 68 55 49 40 23 18 48 56 73 67
266 291 221 211 249 252 236 230 231 187 180 172 170 165 159 145 149 155 157 158 156 155 156 156 155 151 143 135 127 120 113 110 109 103 100 94 87 83 83 76 62 54 47 41 44 55 56 78 76
198 221 236 238 248 259 269 268 17 79 129 149 151 136 136 138 153 159 154 149 144 143 149 152 151 145 141 134 127 122 115 111 108 106 103 99 95 92 88 82 72 68 58 52 74 88 84 96 87
234 222 215 230 253 248 268 276 18 54 67 79 107 116 115 127 144 158 153 146 147 152 156 156 152 149 146 140 136 129 123 121 120 117 111 108 106 95 88 83 78 69 58 49 66 91 86 96 97
Height
1516 1518 1520 1523 1524 1525 1521 1510 1499 1499 1497 1499 1501 1502 1504 1509 1513 1524 1525 1525 1527 1529 1534 1537 1541 1543 1546 1547 1549 1550 1551 1552 1553 1554 1555 1555 1556 1557 1558 1559 1560 1560 1561 1562 1562 1563 1564 1564 1565
1514 1517 1521 1521 1523 1526 1517 1505 1500 1498 1499 1501 1504 1505 1506 1512 1517 1520 1524 1526 1528 1530 1534 1538 1541 1544 1546 1548 1550 1551 1552 1554 1555 1556 1557 1558 1558 1559 1560 1561 1562 1562 1563 1564 1565 1565 1566 1567 1567
1513 1515 1519 1517 1518 1516 1509 1499 1497 1498 1501 1504 1506 1508 1510 1516 1520 1522 1525 1526 1529 1532 1535 1538 1542 1545 1547 1549 1551 1552 1554 1555 1557 1558 1559 1560 1560 1561 1562 1563 1564 1565 1565 1566 1567 1568 1568 1569 1570
1512 1515 1516 1514 1512 1504 1499 1495 1495 1498 1503 1506 1507 1510 1514 1519 1521 1524 1526 1528 1530 1533 1536 1539 1543 1545 1548 1550 1552 1554 1555 1557 1558 1559 1560 1561 1562 1563 1564 1565 1566 1567 1567 1568 1569 1570 1570 1571 1572
1511 1512 1513 1513 1506 1499 1496 1496 1497 1499 1502 1506 1507 1510 1516 1520 1522 1525 1528 1530 1532 1534 1536 1540 1543 1546 1549 1551 1553 1555 1556 1558 1560 1561 1562 1563 1564 1565 1566 1567 1568 1569 1569 1570 1571 1572 1572 1573 1573
1509 1508 1511 1510 1503 1497 1496 1498 1500 1500 1502 1504 1507 1510 1517 1520 1523 1526 1529 1532 1533 1535 1537 1541 1544 1547 1549 1552 1554 1555 1557 1559 1561 1562 1563 1564 1566 1566 1567 1568 1569 1570 1571 1572 1573 1573 1574 1574 1575
1506 1505 1505 1502 1500 1498 1496 1498 1501 1501 1502 1504 1506 1510 1517 1520 1523 1526 1530 1532 1534 1536 1538 1541 1544 1547 1550 1552 1554 1556 1558 1560 1561 1563 1564 1566 1567 1568 1569 1570 1571 1571 1572 1573 1574 1574 1575 1575 1576
1502 1504 1502 1499 1499 1498 1496 1499 1501 1502 1503 1505 1507 1510 1516 1519 1522 1526 1530 1532 1535 1537 1539 1542 1545 1548 1550 1552 1555 1557 1559 1560 1562 1563 1565 1566 1568 1569 1570 1571 1572 1572 1573 1574 1575 1575 1576 1576 1577
1502 1506 1502 1497 1497 1497 1497 1499 1501 1503 1504 1507 1509 1511 1515 1518 1522 1526 1529 1532 1535 1538 1540 1543 1545 1548 1550 1553 1555 1557 1559 1560 1562 1564 1566 1567 1568 1569 1570 1571 1572 1573 1574 1574 1575 1576 1576 1577 1577
1500 1503 1498 1494 1495 1497 1498 1500 1502 1504 1506 1509 1511 1513 1516 1519 1522 1525 1528 1530 1534 1537 1541 1543 1546 1548 1550 1552 1555 1557 1559 1560 1562 1564 1566 1567 1568 1569 1570 1571 1572 1573 1574 1574 1575 1576 1576 1576 1576
1497 1497 1495 1496 1496 1499 1500 1501 1503 1504 1506 1509 1511 1514 1516 1519 1522 1525 1528 1530 1533 1537 1540 1543 1546 1548 1550 1552 1554 1556 1558 1560 1562 1564 1566 1567 1569 1570 1570 1571 1572 1572 1573 1574 1574 1575 1575 1575 1575
1495 1495 1496 1497 1499 1501 1503 1503 1504 1504 1506 1508 1511 1513 1516 1519 1522 1525 1527 1530 1533 1536 1539 1542 1545 1547 1550 1552 1554 1557 1558 1560 1562 1564 1566 1567 1568 1569 1570 1570 1571 1571 1572 1572 1573 1574 1574 1575 1575
1494 1494 1497 1498 1501 1502 1504 1504 1504 1504 1506 1508 1511 1513 1516 1518 1521 1524 1527 1529 1532 1535 1538 1541 1544 1546 1549 1551 1553 1556 1558 1559 1561 1563 1565 1567 1567 1568 1569 1570 1570 1571 1572 1572 1573 1573 1574 1574 1574
1493 1495 1497 1499 1501 1502 1505 1505 1505 1505 1506 1509 1511 1513 1515 1517 1520 1523 1525 1528 1530 1533 1536 1539 1542 1544 1547 1549 1552 1554 1557 1558 1560 1561 1563 1565 1566 1567 1568 1569 1569 1570 1571 1571 1572 1572 1572 1572 1572
1495 1497 1497 1498 1500 1502 1505 1508 1505 1505 1506 1508 1510 1512 1514 1516 1518 1521 1523 1526 1529 1531 1534 1537 1540 1542 1545 1547 1550 1552 1555 1557 1558 1560 1561 1563 1564 1565 1566 1567 1568 1568 1569 1569 1570 1570 1570 1570 1570
1496 1499 1503 1498 1500 1502 1507 1509 1503 1503 1505 1506 1508 1510 1512 1514 1517 1519 1521 1524 1526 1529 1532 1535 1537 1540 1542 1545 1548 1550 1553 1555 1556 1558 1559 1561 1562 1563 1564 1565 1566 1566 1567 1567 1567 1567 1567 1567 1567
1499 1502 1502 1499 1498 1500 1503 1504 1500 1500 1503 1504 1506 1508 1510 1512 1514 1517 1519 1522 1524 1527 1529 1532 1534 1537 1539 1542 1545 1548 1550 1552 1554 1555 1557 1558 1560 1561 1561 1562 1563 1564 1564 1564 1565 1564 1564 1564 1564
1500 1499 1498 1497 1495 1497 1501 1500 1498 1497 1499 1501 1503 1505 1507 1509 1511 1514 1516 1519 1521 1524 1526 1529 1531 1534 1537 1540 1542 1545 1547 1549 1551 1552 1554 1555 1557 1558 1559 1559 1560 1561 1561 1561 1561 1561 1561 1561 1560
1495 1495 1495 1493 1492 1496 1499 1498 1496 1495 1496 1498 1500 1502 1504 1506 1508 1511 1513 1516 1518 1521 1524 1526 1528 1531 1533 1536 1538 1541 1543 1545 1547 1549 1551 1552 1554 1555 1555 1556 1557 1557 1558 1558 1558 1558 1557 1557 1557
1495 1497 1496 1494 1492 1495 1498 1497 1494 1493 1493 1494 1496 1498 1500 1503 1505 1507 1509 1512 1515 1517 1520 1522 1525 1527 1530 1532 1534 1537 1539 1541 1543 1545 1547 1549 1550 1551 1552 1552 1553 1553 1554 1554 1554 1554 1553 1553 1553
1495 1497 1497 1498 1496 1495 1498 1498 1493 1489 1489 1490 1491 1494 1496 1498 1501 1503 1505 1508 1511 1513 1516 1518 1521 1523 1526 1529 1531 1533 1536 1538 1540 1541 1543 1544 1546 1547 1548 1548 1549 1549 1549 1549 1549 1549 1549 1549 1549
1498 1494 1496 1498 1502 1503 1500 1506 1491 1485 1485 1485 1486 1489 1491 1494 1496 1499 1501 1503 1506 1509 1512 1515 1517 1520 1522 1525 1527 1529 1531 1533 1535 1537 1538 1540 1541 1542 1543 1544 1544 1544 1544 1544 1544 1544 1544 1544 1544
1497 1496 1498 1499 1502 1504 1499 1503 1491 1479 1481 1480 1481 1483 1486 1489 1492 1494 1497 1499 1502 1505 1508 1511 1514 1516 1518 1520 1523 1525 1527 1529 1531 1533 1534 1535 1536 1537 1538 1539 1539 1539 1539 1539 1539 1539 1539 1539 1539
1498 1499 1500 1501 1505 1512 1499 1501 1492 1478 1474 1473 1475 1478 1481 1484 1487 1490 1493 1495 1498 1501 1504 1506 1509 1512 1514 1517 1519 1521 1523 1525 1527 1528 1530 1531 1532 1532 1533 1533 1534 1534 1534 1534 1534 1534 1534 1534 1533
1500 1507 1513 1514 1515 1508 1489 1491 1484 1469 1466 1468 1471 1474 1477 1480 1482 1485 1488 1490 1493 1496 1499 1502 1504 1507 1510 1512 1515 1517 1520 1522 1523 1524 1526 1526 1527 1528 1528 1529 1529 1529 1529 1529 1528 1528 1528 1528 1528
1501 1504 1512 1513 1508 1498 1485 1487 1476 1464 1464 1465 1469 1471 1474 1476 1479 1482 1484 1486 1489 1491 1495 1497 1500 1503 1505 1508 1510 1513 1515 1517 1519 1520 1521 1522 1522 1523 1523 1524 1524 1524 1524 1523 1523 1523 1523 1522 1522
1500 1502 1501 1506 1502 1500 1490 1477 1468 1462 1463 1465 1468 1470 1472 1475 1477 1479 1481 1483 1485 1488 1490 1493 1496 1499 1501 1504 1506 1509 1511 1513 1515 1516 1517 1518 1518 1518 1519 1519 1519 1519 1518 1518 1518 1517 1517 1517 1517
1500 1499 1503 1507 1506 1500 1486 1479 1474 1466 1464 1465 1467 1469 1471 1473 1475 1477 1479 1480 1482 1484 1487 1490 1492 1495 1497 1500 1503 1505 1507 1509 1510 1512 1513 1513 1514 1514 1514 1514 1514 1514 1513 1513 1512 1512 1512 1512 1512
1500 1501 1500 1500 1498 1500 1493 1483 1465 1464 1463 1465 1467 1469 1471 1472 1474 1475 1477 1478 1480 1481 1484 1486 1489 1491 1494 1496 1499 1501 1503 1505 1506 1507 1508 1509 1509 1509 1509 1509 1509 1509 1509 1508 1508 1507 1507 1507 1507
1493 1493 1496 1502 1499 1493 1494 1487 1465 1465 1465 1465 1467 1468 1470 1471 1472 1474 1475 1476 1477 1479 1481 1483 1485 1488 1490 1493 1496 1498 1500 1501 1502 1503 1504 1505 1505 1505 1505 1505 1505 1504 1504 1504 1503 1503 1503 1503 1503